Hayward, WI

8:09 PM CST on November 15, 2019 (GMT -0600)
Sawyer County

Weather History for KHYR - September, 2019

Change the Weather History Date:

Friday, September 6, 2019

  Actual Average Record
Temperature  
Mean Temperature 63 °F -  
Max Temperature 71 °F 78 °F 88 °F (2007)
Min Temperature 55 °F 48 °F 36 °F (2018)
Degree Days  
Heating Degree Days 2    
Growing Degree Days 13 (Base 50)    
Moisture  
Dew Point 55 °F    
Average Humidity 81    
Maximum Humidity 94    
Minimum Humidity 57    
Precipitation  
Precipitation 0.00 in - - ()
Sea Level Pressure  
Sea Level Pressure 30.04 in    
Wind  
Wind Speed 5 mph (North)    
Max Wind Speed 12 mph    
Max Gust Speed 18 mph    
Visibility 9 miles    
Events Rain    
Averages and records for this station are not official NWS values.
T = Trace of Precipitation, MM = Missing Value Source: NWS Daily Summary

Daily Weather History Graph

Daily Weather History Graph

Search for Another Location

Airport or City:

Astronomy

Sep. 06, 2019 Rise Set
Actual Time 6:32 AM CDT 7:34 PM CDT
Civil Twilight 6:01 AM CDT 8:05 PM CDT
Nautical Twilight 5:25 AM CDT 8:41 PM CDT
Astronomical Twilight 4:46 AM CDT 9:20 PM CDT
Moon 3:06 PM CDT (9/6) No Moon Set
Length of Visible Light 14h 03m
Length of Day
13h 02m
First Quarter, 56% of the Moon is Illuminated
Sep 6
First Quarter
Sep 13
Full
Sep 21
Last Quarter
Sep 28
New
Oct 5
First Quarter

Hourly Weather History & Observations

Time (CDT) Temp. Dew Point Humidity Pressure Visibility Wind Dir Wind Speed Gust Speed Precip Events Conditions
12:51 AM 62.6 °F 60.8 °F 94% 29.90 in 7.0 mi Calm Calm - N/A   Overcast
12:53 AM 62.1 °F 60.1 °F 93% 29.91 in 7.0 mi Variable 3.5 mph - N/A   Overcast
1:01 AM 62.1 °F 60.1 °F 93% 29.91 in 10.0 mi North 3.5 mph - N/A   Overcast
1:11 AM 62.1 °F 59.0 °F 90% 29.91 in 10.0 mi Variable 4.6 mph - N/A   Overcast
1:53 AM 61.0 °F 57.9 °F 90% 29.93 in 10.0 mi Variable 4.6 mph - N/A   Overcast
2:53 AM 59.0 °F 55.9 °F 90% 29.94 in 10.0 mi Variable 5.8 mph - N/A   Overcast
3:53 AM 57.0 °F 55.0 °F 93% 29.97 in 10.0 mi North 4.6 mph - N/A   Overcast
4:53 AM 55.9 °F 54.0 °F 93% 29.99 in 9.0 mi North 5.8 mph - N/A   Overcast
5:06 AM 55.9 °F 54.0 °F 93% 30.00 in 5.0 mi North 6.9 mph - N/A   Overcast
5:53 AM 55.0 °F 53.1 °F 93% 30.03 in 8.0 mi North 6.9 mph - N/A   Overcast
6:07 AM 55.0 °F 53.1 °F 93% 30.03 in 10.0 mi North 6.9 mph - N/A   Overcast
6:53 AM 55.9 °F 52.0 °F 87% 30.06 in 10.0 mi North 11.5 mph 18.4 mph N/A   Overcast
7:18 AM 55.9 °F 53.1 °F 90% 30.05 in 2.5 mi North 10.4 mph - 0.00 in Rain Light Rain
7:26 AM 55.9 °F 53.1 °F 90% 30.05 in 7.0 mi North 8.1 mph 17.3 mph 0.00 in   Overcast
7:53 AM 55.9 °F 53.1 °F 90% 30.07 in 10.0 mi Variable 6.9 mph - 0.00 in   Overcast
8:09 AM 55.9 °F 52.0 °F 87% 30.06 in 10.0 mi NNE 8.1 mph - N/A   Overcast
8:35 AM 57.0 °F 53.1 °F 87% 30.07 in 10.0 mi North 8.1 mph - N/A   Overcast
8:53 AM 57.0 °F 53.1 °F 87% 30.08 in 10.0 mi North 8.1 mph - N/A   Overcast
9:41 AM 59.0 °F 53.1 °F 81% 30.09 in 10.0 mi Variable 6.9 mph - N/A   Overcast
9:53 AM 59.0 °F 52.0 °F 78% 30.10 in 10.0 mi North 6.9 mph - N/A   Overcast
10:53 AM 61.0 °F 52.0 °F 72% 30.10 in 10.0 mi NNW 5.8 mph - N/A   Overcast
11:53 AM 62.1 °F 53.1 °F 72% 30.11 in 10.0 mi Variable 4.6 mph - N/A   Overcast
12:53 PM 64.9 °F 54.0 °F 68% 30.10 in 10.0 mi Variable 5.8 mph - N/A   Overcast
1:53 PM 66.0 °F 54.0 °F 65% 30.10 in 10.0 mi Variable 5.8 mph - N/A   Overcast
2:08 PM 66.9 °F 54.0 °F 63% 30.10 in 10.0 mi North 6.9 mph - N/A   Overcast
2:15 PM 66.9 °F 55.0 °F 66% 30.10 in 10.0 mi Variable 5.8 mph - N/A   Overcast
2:53 PM 68.0 °F 55.0 °F 63% 30.09 in 10.0 mi Calm Calm - N/A   Mostly Cloudy
3:53 PM 66.9 °F 55.0 °F 66% 30.08 in 10.0 mi South 3.5 mph - N/A   Mostly Cloudy
4:53 PM 71.1 °F 55.0 °F 57% 30.07 in 10.0 mi Variable 3.5 mph - N/A   Partly Cloudy
5:53 PM 70.0 °F 55.9 °F 61% 30.06 in 10.0 mi Variable 3.5 mph - N/A   Clear
6:53 PM 68.0 °F 57.0 °F 68% 30.05 in 10.0 mi SSW 5.8 mph - N/A   Clear
7:53 PM 62.1 °F 57.0 °F 84% 30.05 in 10.0 mi South 3.5 mph - N/A   Partly Cloudy
8:53 PM 61.0 °F 57.0 °F 87% 30.05 in 10.0 mi SSW 3.5 mph - N/A   Scattered Clouds
9:53 PM 64.0 °F 57.9 °F 80% 30.06 in 10.0 mi Variable 3.5 mph - N/A   Mostly Cloudy
10:53 PM 62.1 °F 55.0 °F 78% 30.06 in 10.0 mi Calm Calm - N/A   Scattered Clouds
11:53 PM 57.9 °F 54.0 °F 87% 30.06 in 10.0 mi Calm Calm - N/A   Clear